Flag for Germany Weather past 2 weeks in Starnberg, Bavaria, Germany

Now
91 °F

Passing clouds.


Feels Like: 91 °F
Forecast: 61 / 72 °F
Wind: 13 mph from West

Location: Oberpfaffenhofen

Current Time: Jul 7, 2015 at 5:25:12 PM

Latest Report: Jul 7, 2015 at 4:50 PM


Visibility: N/A

Pressure: 29.92 "Hg (28.01 "Hg at 590m altitude)

Humidity: 36%

Dew point: 61 °F

Location of StarnbergLocation

Historic Weather in Starnberg — Graph

°F

Starnberg temperature yesterday

Maximum temperature yesterday: 82 °F (at 4:20 PM)
Minimum temperature yesterday: 66 °F (at 8:20 AM)
Average temperature yesterday: 76 °F

Past Weeks' High & Low Weather Summary

 TemperatureHumidityPressure
High91 °F (Jul 7, 2:20 PM)100% (Jun 25, 6:50 AM)30.33 "Hg (Jun 25, 6:50 AM)
Low48 °F (Jun 23, 6:50 AM)34% (Jun 30, 4:20 PM)29.86 "Hg (Jun 22, 7:50 PM)
Average71 °F61%30.16 "Hg
* Reported Jun 22 4:20 PM — Jul 7 4:20 PM, Starnberg, Weather by CustomWeather, © 2015

Note: Actual official high and low records may vary slightly from our data, if they occured in-between our weather recording intervals... More about our weather records

Advertising

Starnberg weather history for previous 24 hours

 ConditionsComfort  
Time TempWeatherWind HumidityBarometerVisibility
4:20 PM
Tue, Jul 7
91 °FPassing clouds.10 mph38%29.92 "HgN/A
3:50 PM91 °FPassing clouds.12 mph41%29.95 "HgN/A
3:20 PM91 °FSunny.8 mph41%29.95 "Hg10 mi
2:50 PM91 °FPassing clouds.8 mph38%29.95 "HgN/A
2:20 PM91 °FPassing clouds.7 mph38%29.95 "HgN/A
1:50 PM90 °FPassing clouds.7 mph41%29.98 "HgN/A
1:20 PM90 °FPassing clouds.6 mph43%29.98 "HgN/A
12:50 PM90 °FSunny.1 mph46%29.98 "Hg10 mi
12:20 PM88 °FSunny.2 mph46%30.01 "Hg10 mi
11:50 AM86 °FSunny.3 mph46%30.01 "Hg10 mi
11:20 AM86 °FSunny.2 mph55%30.01 "Hg10 mi
10:50 AM84 °FSunny.2 mph55%30.01 "Hg10 mi
10:20 AM82 °FSunny.1 mph62%30.01 "Hg10 mi
9:50 AM81 °FSunny.2 mph62%30.04 "Hg10 mi
9:20 AM79 °FSunny.1 mph70%30.04 "Hg10 mi
8:50 AM77 °FSunny.2 mph74%30.04 "Hg10 mi
8:20 AM75 °FSunny.2 mph78%30.04 "Hg10 mi
7:50 AM72 °FSunny.3 mph88%30.04 "Hg10 mi
7:20 AM70 °FSunny.2 mph94%30.07 "Hg10 mi
6:50 AM66 °FSunny.1 mph100%30.07 "Hg10 mi
6:50 PM
Mon, Jul 6
81 °FPassing clouds.5 mph58%30.15 "HgN/A
6:20 PM81 °FPassing clouds.3 mph58%30.15 "HgN/A
5:50 PM81 °FPassing clouds.6 mph62%30.15 "HgN/A
5:20 PM81 °FScattered clouds.6 mph58%30.15 "HgN/A
Weather by CustomWeather, © 2015

See weather overviewHow to use our weather pages